Darstellungsparameter: Aktuell verwendete Einstellungen:
Skalierung der Graphiken ... ?
xyx+y,   Skalierungsfaktor:      Skalierung: Modus: x, Faktor: 1
Darstellungszeitraum ... ?
Vom - - bis: - -   Zeitraum: 05.08.2018 - 07.08.2018
Min/Max/Avg-Anzeige ... ?
Zeige MMA aktuell
Zeige MMA Monat
Zeige MMA alles
Zeige --A aktuell
Zeige --A Monat
Zeige --A alles
Keine MMA-Anzeige
MMA:
Keine MMA-Graphiken
MMA-Basis: 05.08.2018 - 07.08.2018
Quicknavigation für Darstellung... ?
Tage:      1T, 2T, 3T, 5T -1T -2T -3T -5T +1T +2T +3T +5T
Wochen: 1W, 2W, 3W -1W -2W -3W +1W +2W +3W
Monate: 1M, 3M, 6M -1M -3M -6M +1M +3M +6M
Jahre:    1J, 3J, 5J, 10J -1J -3J -5J -10J +1J +3J +5J +10J
Nutze für die Darstellung ... ?
Originaldaten oder Mittelwerte auf ...
Stundenbasis Tagesbasis Wochenbasis
Monatsbasis Jahresbasis      Datenbasis: Original-Daten
Darstellen als:
Statistik (Auto) Statistik J:M      Darstellung:
Zur Graphik,    zurück zur Übersicht aller Sensoren.
 
Tabellarische Datenbersicht: ?
 
Sensor: Nr:Datum:Temp:Feuchte:Taupunkt:
Aussen-T/F 1 05-08-2018 00:00:00 24.4 C 62 % 16.65 C
2 05-08-2018 00:05:00 24.7 C 62 % 16.93 C
3 05-08-2018 00:10:00 24.8 C 62 % 17.02 C
4 05-08-2018 00:15:00 25 C 61 % 16.96 C
5 05-08-2018 00:20:00 25.1 C 61 % 17.05 C
6 05-08-2018 00:25:00 25.2 C 61 % 17.14 C
7 05-08-2018 00:30:00 25.2 C 62 % 17.4 C
8 05-08-2018 00:35:00 25.1 C 62 % 17.31 C
9 05-08-2018 00:40:00 25.1 C 62 % 17.31 C
10 05-08-2018 00:45:00 25.1 C 63 % 17.56 C
11 05-08-2018 00:50:00 25.1 C 63 % 17.56 C
12 05-08-2018 00:55:00 24.9 C 63 % 17.37 C
13 05-08-2018 01:00:00 24.8 C 64 % 17.53 C
14 05-08-2018 01:05:00 24.7 C 65 % 17.68 C
15 05-08-2018 01:10:00 24.7 C 65 % 17.68 C
16 05-08-2018 01:15:00 24.7 C 65 % 17.68 C
17 05-08-2018 01:20:00 24.7 C 66 % 17.92 C
18 05-08-2018 01:25:00 24.6 C 66 % 17.83 C
19 05-08-2018 01:30:00 24.6 C 66 % 17.83 C
20 05-08-2018 01:35:00 24.4 C 67 % 17.87 C
21 05-08-2018 01:40:00 24.4 C 67 % 17.87 C
22 05-08-2018 01:45:00 24.4 C 67 % 17.87 C
23 05-08-2018 01:50:00 24.3 C 68 % 18.01 C
24 05-08-2018 01:55:00 24.3 C 68 % 18.01 C
25 05-08-2018 02:00:00 24.2 C 68 % 17.92 C
Sensor: Nr:Datum:Temp:Feuchte:Taupunkt:
Aussen-T/F 26 05-08-2018 02:05:00 24 C 69 % 17.96 C
27 05-08-2018 02:10:00 23.9 C 69 % 17.87 C
28 05-08-2018 02:15:00 23.8 C 70 % 18 C
29 05-08-2018 02:20:00 23.6 C 70 % 17.81 C
30 05-08-2018 02:25:00 23.5 C 70 % 17.71 C
31 05-08-2018 02:30:00 23.4 C 70 % 17.62 C
32 05-08-2018 02:35:00 23.4 C 71 % 17.84 C
33 05-08-2018 02:40:00 23.3 C 71 % 17.75 C
34 05-08-2018 02:45:00 23.2 C 71 % 17.65 C
35 05-08-2018 02:50:00 23.1 C 71 % 17.55 C
36 05-08-2018 02:55:00 22.9 C 72 % 17.58 C
37 05-08-2018 03:00:00 22.8 C 72 % 17.49 C
38 05-08-2018 03:05:00 22.7 C 73 % 17.61 C
39 05-08-2018 03:10:00 22.6 C 74 % 17.73 C
40 05-08-2018 03:15:00 22.4 C 74 % 17.54 C
41 05-08-2018 03:20:00 22.3 C 74 % 17.44 C
42 05-08-2018 03:25:00 22.2 C 75 % 17.56 C
43 05-08-2018 03:30:00 22.1 C 75 % 17.46 C
44 05-08-2018 03:35:00 21.9 C 76 % 17.48 C
45 05-08-2018 03:40:00 21.8 C 77 % 17.59 C
46 05-08-2018 03:45:00 21.8 C 77 % 17.59 C
47 05-08-2018 03:50:00 21.7 C 77 % 17.49 C
48 05-08-2018 03:55:00 21.7 C 77 % 17.49 C
49 05-08-2018 04:00:00 21.6 C 78 % 17.6 C
50 05-08-2018 04:05:00 21.5 C 78 % 17.5 C
Sensor: Nr:Datum:Temp:Feuchte:Taupunkt:
Aussen-T/F 51 05-08-2018 04:10:00 21.4 C 78 % 17.4 C
52 05-08-2018 04:15:00 21.3 C 79 % 17.51 C
53 05-08-2018 04:20:00 21.2 C 79 % 17.41 C
54 05-08-2018 04:25:00 21.1 C 79 % 17.32 C
55 05-08-2018 04:30:00 21.1 C 80 % 17.51 C
56 05-08-2018 04:35:00 21.1 C 80 % 17.51 C
57 05-08-2018 04:40:00 21.1 C 80 % 17.51 C
58 05-08-2018 04:45:00 21 C 80 % 17.42 C
59 05-08-2018 04:50:00 20.9 C 80 % 17.32 C
60 05-08-2018 04:55:00 20.9 C 80 % 17.32 C
61 05-08-2018 05:00:00 20.8 C 80 % 17.22 C
62 05-08-2018 05:05:00 20.8 C 81 % 17.42 C
63 05-08-2018 05:10:00 20.7 C 81 % 17.32 C
64 05-08-2018 05:15:00 20.6 C 81 % 17.22 C
65 05-08-2018 05:20:00 20.5 C 81 % 17.13 C
66 05-08-2018 05:25:00 20.4 C 82 % 17.22 C
67 05-08-2018 05:30:00 20.3 C 82 % 17.13 C
68 05-08-2018 05:35:00 20.2 C 82 % 17.03 C
69 05-08-2018 05:40:00 20.2 C 83 % 17.22 C
70 05-08-2018 05:45:00 20.2 C 83 % 17.22 C
71 05-08-2018 05:50:00 20.2 C 83 % 17.22 C
72 05-08-2018 05:55:00 20.1 C 83 % 17.12 C
73 05-08-2018 06:00:00 20.1 C 83 % 17.12 C
74 05-08-2018 06:05:00 20.1 C 84 % 17.31 C
75 05-08-2018 06:10:00 20.1 C 83 % 17.12 C
Sensor: Nr:Datum:Temp:Feuchte:Taupunkt:
Aussen-T/F 76 05-08-2018 06:15:00 20.1 C 83 % 17.12 C
77 05-08-2018 06:20:00 20 C 84 % 17.21 C
78 05-08-2018 06:25:00 20 C 84 % 17.21 C
79 05-08-2018 06:30:00 19.9 C 84 % 17.12 C
80 05-08-2018 06:35:00 19.9 C 84 % 17.12 C
81 05-08-2018 06:40:00 20 C 84 % 17.21 C
82 05-08-2018 06:45:00 20 C 84 % 17.21 C
83 05-08-2018 06:50:00 20.1 C 84 % 17.31 C
84 05-08-2018 06:55:00 20.1 C 84 % 17.31 C
85 05-08-2018 07:00:00 20.1 C 84 % 17.31 C
86 05-08-2018 07:05:00 20.1 C 84 % 17.31 C
87 05-08-2018 07:10:00 20.2 C 84 % 17.41 C
88 05-08-2018 07:15:00 20.2 C 84 % 17.41 C
89 05-08-2018 07:20:00 20.2 C 84 % 17.41 C
90 05-08-2018 07:25:00 20.3 C 84 % 17.51 C
91 05-08-2018 07:30:00 20.3 C 84 % 17.51 C
92 05-08-2018 07:35:00 20.3 C 83 % 17.32 C
93 05-08-2018 07:40:00 20.4 C 83 % 17.42 C
94 05-08-2018 07:45:00 20.5 C 84 % 17.7 C
95 05-08-2018 07:50:00 20.6 C 83 % 17.61 C
96 05-08-2018 07:55:00 20.7 C 83 % 17.71 C
97 05-08-2018 08:00:00 20.7 C 82 % 17.52 C
98 05-08-2018 08:05:00 20.9 C 81 % 17.52 C
99 05-08-2018 08:10:00 21 C 81 % 17.61 C
100 05-08-2018 08:15:00 21.2 C 80 % 17.61 C
Sensor: Nr:Datum:Temp:Feuchte:Taupunkt:
Aussen-T/F 101 05-08-2018 08:20:00 21.2 C 80 % 17.61 C
102 05-08-2018 08:25:00 21.3 C 79 % 17.51 C
103 05-08-2018 08:30:00 21.4 C 79 % 17.61 C
104 05-08-2018 08:35:00 21.5 C 78 % 17.5 C
105 05-08-2018 08:40:00 21.6 C 78 % 17.6 C
106 05-08-2018 08:45:00 21.7 C 78 % 17.7 C
107 05-08-2018 08:50:00 21.8 C 77 % 17.59 C
108 05-08-2018 08:55:00 21.8 C 76 % 17.38 C
109 05-08-2018 09:00:00 21.9 C 76 % 17.48 C
110 05-08-2018 09:05:00 22 C 76 % 17.57 C
111 05-08-2018 09:10:00 22.1 C 75 % 17.46 C
112 05-08-2018 09:15:00 22.1 C 74 % 17.25 C
113 05-08-2018 09:20:00 22.2 C 74 % 17.34 C
114 05-08-2018 09:25:00 22.2 C 73 % 17.13 C
115 05-08-2018 09:30:00 22.3 C 73 % 17.23 C
116 05-08-2018 09:35:00 22.4 C 72 % 17.1 C
117 05-08-2018 09:40:00 22.4 C 71 % 16.88 C
118 05-08-2018 09:45:00 22.4 C 71 % 16.88 C
119 05-08-2018 09:50:00 22.6 C 70 % 16.85 C
120 05-08-2018 09:55:00 22.7 C 70 % 16.95 C
121 05-08-2018 10:00:00 22.7 C 69 % 16.72 C
122 05-08-2018 10:05:00 22.7 C 68 % 16.49 C
123 05-08-2018 10:10:00 22.7 C 68 % 16.49 C
124 05-08-2018 10:15:00 22.8 C 68 % 16.59 C
125 05-08-2018 10:20:00 22.9 C 67 % 16.45 C
Sensor: Nr:Datum:Temp:Feuchte:Taupunkt:
Aussen-T/F 126 05-08-2018 10:25:00 23.2 C 67 % 16.73 C
127 05-08-2018 10:30:00 23.4 C 65 % 16.45 C
128 05-08-2018 10:35:00 23.6 C 64 % 16.39 C
129 05-08-2018 10:40:00 23.7 C 64 % 16.49 C
130 05-08-2018 10:45:00 23.7 C 63 % 16.24 C
131 05-08-2018 10:50:00 23.7 C 62 % 15.99 C
132 05-08-2018 10:55:00 23.7 C 62 % 15.99 C
133 05-08-2018 11:00:00 23.8 C 62 % 16.08 C
134 05-08-2018 11:05:00 23.9 C 61 % 15.92 C
135 05-08-2018 11:10:00 24 C 60 % 15.76 C
136 05-08-2018 11:15:00 24.1 C 61 % 16.11 C
137 05-08-2018 11:20:00 24.2 C 59 % 15.68 C
138 05-08-2018 11:25:00 24.3 C 57 % 15.24 C
139 05-08-2018 11:30:00 24.4 C 57 % 15.33 C
140 05-08-2018 11:35:00 24.4 C 58 % 15.6 C
141 05-08-2018 11:40:00 24.5 C 58 % 15.7 C
142 05-08-2018 11:45:00 24.6 C 58 % 15.79 C
143 05-08-2018 11:50:00 24.7 C 57 % 15.61 C
144 05-08-2018 11:55:00 24.8 C 55 % 15.15 C
145 05-08-2018 12:00:00 24.8 C 55 % 15.15 C
146 05-08-2018 12:05:00 24.8 C 55 % 15.15 C
147 05-08-2018 12:10:00 24.9 C 55 % 15.24 C
148 05-08-2018 12:15:00 25.2 C 55 % 15.52 C
149 05-08-2018 12:20:00 25.3 C 54 % 15.33 C
150 05-08-2018 12:25:00 25.3 C 54 % 15.33 C
Sensor: Nr:Datum:Temp:Feuchte:Taupunkt:
Aussen-T/F 151 05-08-2018 12:30:00 25.3 C 53 % 15.03 C
152 05-08-2018 12:35:00 25.5 C 54 % 15.51 C
153 05-08-2018 12:40:00 25.7 C 51 % 14.81 C
154 05-08-2018 12:45:00 25.7 C 49 % 14.19 C
155 05-08-2018 12:50:00 25.6 C 51 % 14.71 C
156 05-08-2018 12:55:00 25.7 C 51 % 14.81 C
157 05-08-2018 13:00:00 25.7 C 51 % 14.81 C
158 05-08-2018 13:05:00 25.8 C 49 % 14.28 C
159 05-08-2018 13:10:00 25.8 C 50 % 14.59 C
160 05-08-2018 13:15:00 25.9 C 51 % 14.99 C
161 05-08-2018 13:20:00 26.1 C 49 % 14.55 C
162 05-08-2018 13:25:00 26 C 50 % 14.77 C
163 05-08-2018 13:30:00 26.1 C 50 % 14.87 C
164 05-08-2018 13:35:00 26.1 C 50 % 14.87 C
165 05-08-2018 13:40:00 26.1 C 49 % 14.55 C
166 05-08-2018 13:45:00 26.2 C 49 % 14.64 C
167 05-08-2018 13:50:00 26.3 C 50 % 15.05 C
168 05-08-2018 13:55:00 26.4 C 49 % 14.83 C
169 05-08-2018 14:00:00 26.6 C 48 % 14.69 C
170 05-08-2018 14:05:00 26.7 C 48 % 14.78 C
171 05-08-2018 14:10:00 26.9 C 48 % 14.96 C
172 05-08-2018 14:15:00 26.9 C 47 % 14.64 C
173 05-08-2018 14:20:00 26.9 C 47 % 14.64 C
174 05-08-2018 14:25:00 26.9 C 45 % 13.96 C
175 05-08-2018 14:30:00 26.9 C 45 % 13.96 C
Sensor: Nr:Datum:Temp:Feuchte:Taupunkt:
Aussen-T/F 176 05-08-2018 14:35:00 27 C 45 % 14.06 C
177 05-08-2018 14:40:00 27.1 C 44 % 13.8 C
178 05-08-2018 14:45:00 27.3 C 46 % 14.67 C
179 05-08-2018 14:50:00 27.5 C 45 % 14.51 C
180 05-08-2018 14:55:00 27.7 C 44 % 14.34 C
181 05-08-2018 15:00:00 27.7 C 43 % 13.99 C
182 05-08-2018 15:05:00 27.7 C 43 % 13.99 C
183 05-08-2018 15:10:00 27.9 C 44 % 14.52 C
184 05-08-2018 15:15:00 28.1 C 42 % 13.98 C
185 05-08-2018 15:20:00 28.1 C 42 % 13.98 C
186 05-08-2018 15:25:00 28.5 C 42 % 14.34 C
187 05-08-2018 15:30:00 28.8 C 41 % 14.24 C
188 05-08-2018 15:35:00 29.1 C 42 % 14.88 C
189 05-08-2018 15:40:00 29.4 C 40 % 14.39 C
190 05-08-2018 15:45:00 29.6 C 39 % 14.18 C
191 05-08-2018 15:50:00 29.7 C 39 % 14.27 C
192 05-08-2018 15:55:00 30.1 C 38 % 14.22 C
193 05-08-2018 16:00:00 30.3 C 37 % 13.99 C
194 05-08-2018 16:05:00 30.3 C 39 % 14.8 C
195 05-08-2018 16:10:00 30.3 C 38 % 14.4 C
196 05-08-2018 16:15:00 30.2 C 38 % 14.31 C
197 05-08-2018 16:20:00 30.2 C 39 % 14.71 C
198 05-08-2018 16:25:00 30.4 C 39 % 14.89 C
199 05-08-2018 16:30:00 30.6 C 37 % 14.25 C
200 05-08-2018 16:35:00 30.6 C 39 % 15.07 C
Sensor: Nr:Datum:Temp:Feuchte:Taupunkt:
Aussen-T/F 201 05-08-2018 16:40:00 30.8 C 36 % 14 C
202 05-08-2018 16:45:00 30.9 C 37 % 14.51 C
203 05-08-2018 16:50:00 30.8 C 37 % 14.43 C
204 05-08-2018 16:55:00 30.8 C 37 % 14.43 C
205 05-08-2018 17:00:00 30.8 C 37 % 14.43 C
206 05-08-2018 17:05:00 31 C 37 % 14.6 C
207 05-08-2018 17:10:00 31.2 C 36 % 14.35 C
208 05-08-2018 17:15:00 31.1 C 36 % 14.27 C
209 05-08-2018 17:20:00 31.1 C 37 % 14.69 C
210 05-08-2018 17:25:00 30.9 C 36 % 14.09 C
211 05-08-2018 17:30:00 30.6 C 37 % 14.25 C
212 05-08-2018 17:35:00 30.6 C 38 % 14.66 C
213 05-08-2018 17:40:00 30.8 C 37 % 14.43 C
214 05-08-2018 17:45:00 31 C 36 % 14.18 C
215 05-08-2018 17:50:00 31.2 C 36 % 14.35 C
216 05-08-2018 17:55:00 31.4 C 35 % 14.1 C
217 05-08-2018 18:00:00 31.7 C 35 % 14.36 C
218 05-08-2018 18:05:00 31.7 C 35 % 14.36 C
219 05-08-2018 18:10:00 31.4 C 35 % 14.1 C
220 05-08-2018 18:15:00 31.3 C 35 % 14.01 C
221 05-08-2018 18:20:00 31.1 C 35 % 13.83 C
222 05-08-2018 18:25:00 30.8 C 36 % 14 C
223 05-08-2018 18:30:00 30.8 C 36 % 14 C
224 05-08-2018 18:35:00 30.9 C 36 % 14.09 C
225 05-08-2018 18:40:00 30.9 C 36 % 14.09 C
Sensor: Nr:Datum:Temp:Feuchte:Taupunkt:
Aussen-T/F 226 05-08-2018 18:45:00 31.1 C 35 % 13.83 C
227 05-08-2018 18:50:00 31.1 C 36 % 14.27 C
228 05-08-2018 18:55:00 31.1 C 35 % 13.83 C
229 05-08-2018 19:00:00 30.9 C 36 % 14.09 C
230 05-08-2018 19:05:00 30.9 C 36 % 14.09 C
231 05-08-2018 19:10:00 30.8 C 36 % 14 C
232 05-08-2018 19:15:00 30.5 C 36 % 13.74 C
233 05-08-2018 19:20:00 30.3 C 36 % 13.56 C
234 05-08-2018 19:25:00 29.9 C 37 % 13.63 C
235 05-08-2018 19:30:00 29.7 C 38 % 13.87 C
236 05-08-2018 19:35:00 29.6 C 38 % 13.78 C
237 05-08-2018 19:40:00 29.2 C 39 % 13.82 C
238 05-08-2018 19:45:00 28.8 C 41 % 14.24 C
239 05-08-2018 19:50:00 28.7 C 40 % 13.77 C
240 05-08-2018 19:55:00 28.5 C 42 % 14.34 C
241 05-08-2018 20:00:00 28.4 C 41 % 13.88 C
242 05-08-2018 20:05:00 28.3 C 41 % 13.79 C
243 05-08-2018 20:10:00 28.2 C 42 % 14.07 C
244 05-08-2018 20:15:00 28.1 C 41 % 13.61 C
245 05-08-2018 20:20:00 27.9 C 42 % 13.8 C
246 05-08-2018 20:25:00 27.8 C 41 % 13.34 C
247 05-08-2018 20:30:00 27.7 C 42 % 13.62 C
248 05-08-2018 20:35:00 27.6 C 42 % 13.53 C
249 05-08-2018 20:40:00 27.3 C 42 % 13.27 C
250 05-08-2018 20:45:00 27.2 C 43 % 13.54 C
Sensor: Nr:Datum:Temp:Feuchte:Taupunkt:
Aussen-T/F 251 05-08-2018 20:50:00 27 C 43 % 13.36 C
252 05-08-2018 20:55:00 26.8 C 44 % 13.53 C
253 05-08-2018 21:00:00 26.7 C 46 % 14.12 C
254 05-08-2018 21:05:00 26.3 C 47 % 14.09 C
255 05-08-2018 21:10:00 25.8 C 48 % 13.96 C
256 05-08-2018 21:15:00 25.4 C 49 % 13.91 C
257 05-08-2018 21:20:00 24.9 C 49 % 13.46 C
258 05-08-2018 21:25:00 24.6 C 51 % 13.79 C
259 05-08-2018 21:30:00 24.2 C 52 % 13.73 C
260 05-08-2018 21:35:00 23.8 C 54 % 13.94 C
261 05-08-2018 21:40:00 23.4 C 55 % 13.85 C
262 05-08-2018 21:45:00 23.2 C 55 % 13.66 C
263 05-08-2018 21:50:00 23 C 57 % 14.03 C
264 05-08-2018 21:55:00 22.8 C 57 % 13.84 C
265 05-08-2018 22:00:00 22.7 C 57 % 13.75 C
266 05-08-2018 22:05:00 22.6 C 57 % 13.65 C
267 05-08-2018 22:10:00 22.7 C 56 % 13.47 C
268 05-08-2018 22:15:00 22.8 C 57 % 13.84 C
269 05-08-2018 22:20:00 22.8 C 56 % 13.57 C
270 05-08-2018 22:25:00 22.7 C 57 % 13.75 C
271 05-08-2018 22:30:00 22.4 C 58 % 13.73 C
272 05-08-2018 22:35:00 22.2 C 58 % 13.55 C
273 05-08-2018 22:40:00 21.9 C 59 % 13.53 C
274 05-08-2018 22:45:00 21.7 C 60 % 13.6 C
275 05-08-2018 22:50:00 21.4 C 61 % 13.57 C
Sensor: Nr:Datum:Temp:Feuchte:Taupunkt:
Aussen-T/F 276 05-08-2018 22:55:00 21.3 C 62 % 13.73 C
277 05-08-2018 23:00:00 21.1 C 62 % 13.54 C
278 05-08-2018 23:05:00 21 C 63 % 13.69 C
279 05-08-2018 23:10:00 20.8 C 63 % 13.5 C
280 05-08-2018 23:15:00 20.8 C 63 % 13.5 C
281 05-08-2018 23:20:00 20.7 C 63 % 13.41 C
282 05-08-2018 23:25:00 20.6 C 64 % 13.55 C
283 05-08-2018 23:30:00 20.4 C 64 % 13.37 C
284 05-08-2018 23:35:00 20.4 C 64 % 13.37 C
285 05-08-2018 23:40:00 20.3 C 65 % 13.51 C
286 05-08-2018 23:45:00 20.2 C 64 % 13.18 C
287 05-08-2018 23:50:00 20.1 C 65 % 13.32 C
288 05-08-2018 23:55:00 20 C 66 % 13.46 C
289 06-08-2018 00:00:00 19.9 C 65 % 13.13 C
290 06-08-2018 00:05:00 19.8 C 66 % 13.27 C
291 06-08-2018 00:10:00 19.7 C 66 % 13.17 C
292 06-08-2018 00:15:00 19.6 C 66 % 13.08 C
293 06-08-2018 00:20:00 19.4 C 67 % 13.12 C
294 06-08-2018 00:25:00 19.3 C 67 % 13.02 C
295 06-08-2018 00:30:00 19.2 C 67 % 12.93 C
296 06-08-2018 00:35:00 19.1 C 67 % 12.83 C
297 06-08-2018 00:40:00 19 C 68 % 12.96 C
298 06-08-2018 00:45:00 18.9 C 68 % 12.87 C
299 06-08-2018 00:50:00 18.8 C 69 % 13 C
300 06-08-2018 00:55:00 18.6 C 69 % 12.8 C
Sensor: Nr:Datum:Temp:Feuchte:Taupunkt:
Aussen-T/F 301 06-08-2018 01:00:00 18.5 C 70 % 12.93 C
302 06-08-2018 01:05:00 18.4 C 70 % 12.83 C
303 06-08-2018 01:10:00 18.3 C 71 % 12.95 C
304 06-08-2018 01:15:00 18.1 C 71 % 12.76 C
305 06-08-2018 01:20:00 18 C 71 % 12.67 C
306 06-08-2018 01:25:00 17.9 C 72 % 12.78 C
307 06-08-2018 01:30:00 17.8 C 71 % 12.47 C
308 06-08-2018 01:35:00 17.8 C 72 % 12.69 C
309 06-08-2018 01:40:00 17.7 C 72 % 12.59 C
310 06-08-2018 01:45:00 17.7 C 72 % 12.59 C
311 06-08-2018 01:50:00 17.7 C 72 % 12.59 C
312 06-08-2018 01:55:00 17.7 C 72 % 12.59 C
313 06-08-2018 02:00:00 17.7 C 71 % 12.38 C
314 06-08-2018 02:05:00 17.6 C 72 % 12.5 C
315 06-08-2018 02:10:00 17.5 C 72 % 12.4 C
316 06-08-2018 02:15:00 17.3 C 73 % 12.42 C
317 06-08-2018 02:20:00 17.3 C 73 % 12.42 C
318 06-08-2018 02:25:00 17.2 C 74 % 12.53 C
319 06-08-2018 02:30:00 17.2 C 74 % 12.53 C
320 06-08-2018 02:35:00 17.2 C 74 % 12.53 C
321 06-08-2018 02:40:00 17.1 C 74 % 12.43 C
322 06-08-2018 02:45:00 17 C 75 % 12.54 C
323 06-08-2018 02:50:00 16.9 C 75 % 12.44 C
324 06-08-2018 02:55:00 16.8 C 75 % 12.35 C
325 06-08-2018 03:00:00 16.8 C 75 % 12.35 C
Sensor: Nr:Datum:Temp:Feuchte:Taupunkt:
Aussen-T/F 326 06-08-2018 03:05:00 16.8 C 75 % 12.35 C
327 06-08-2018 03:10:00 16.8 C 76 % 12.55 C
328 06-08-2018 03:15:00 16.7 C 76 % 12.45 C
329 06-08-2018 03:20:00 16.7 C 76 % 12.45 C
330 06-08-2018 03:25:00 16.6 C 76 % 12.36 C
331 06-08-2018 03:30:00 16.5 C 76 % 12.26 C
332 06-08-2018 03:35:00 16.5 C 76 % 12.26 C
333 06-08-2018 03:40:00 16.4 C 77 % 12.36 C
334 06-08-2018 03:45:00 16.4 C 77 % 12.36 C
335 06-08-2018 03:50:00 16.4 C 77 % 12.36 C
336 06-08-2018 03:55:00 16.3 C 77 % 12.26 C
337 06-08-2018 04:00:00 16.3 C 77 % 12.26 C
338 06-08-2018 04:05:00 16.3 C 78 % 12.46 C
339 06-08-2018 04:10:00 16.3 C 78 % 12.46 C
340 06-08-2018 04:15:00 16.2 C 78 % 12.36 C
341 06-08-2018 04:20:00 16.2 C 78 % 12.36 C
342 06-08-2018 04:25:00 16.2 C 78 % 12.36 C
343 06-08-2018 04:30:00 16.1 C 78 % 12.27 C
344 06-08-2018 04:35:00 16.1 C 78 % 12.27 C
345 06-08-2018 04:40:00 16 C 78 % 12.17 C
346 06-08-2018 04:45:00 15.9 C 78 % 12.07 C
347 06-08-2018 04:50:00 15.8 C 78 % 11.97 C
348 06-08-2018 04:55:00 15.8 C 79 % 12.17 C
349 06-08-2018 05:00:00 15.7 C 79 % 12.07 C
350 06-08-2018 05:05:00 15.6 C 79 % 11.97 C
Sensor: Nr:Datum:Temp:Feuchte:Taupunkt:
Aussen-T/F 351 06-08-2018 05:10:00 15.6 C 80 % 12.16 C
352 06-08-2018 05:15:00 15.5 C 80 % 12.07 C
353 06-08-2018 05:20:00 15.4 C 80 % 11.97 C
354 06-08-2018 05:25:00 15.3 C 81 % 12.06 C
355 06-08-2018 05:30:00 15.3 C 81 % 12.06 C
356 06-08-2018 05:35:00 15.2 C 81 % 11.96 C
357 06-08-2018 05:40:00 15.2 C 82 % 12.15 C
358 06-08-2018 05:45:00 15.2 C 82 % 12.15 C
359 06-08-2018 05:50:00 15.2 C 82 % 12.15 C
360 06-08-2018 05:55:00 15.1 C 82 % 12.05 C
361 06-08-2018 06:00:00 15 C 82 % 11.95 C
362 06-08-2018 06:05:00 14.9 C 82 % 11.86 C
363 06-08-2018 06:10:00 14.9 C 82 % 11.86 C
364 06-08-2018 06:15:00 14.8 C 83 % 11.94 C
365 06-08-2018 06:20:00 14.8 C 83 % 11.94 C
366 06-08-2018 06:25:00 14.8 C 83 % 11.94 C
367 06-08-2018 06:30:00 14.8 C 83 % 11.94 C
368 06-08-2018 06:35:00 14.8 C 84 % 12.12 C
369 06-08-2018 06:40:00 14.8 C 83 % 11.94 C
370 06-08-2018 06:45:00 14.7 C 83 % 11.85 C
371 06-08-2018 06:50:00 14.7 C 84 % 12.03 C
372 06-08-2018 06:55:00 14.7 C 84 % 12.03 C
373 06-08-2018 07:00:00 14.7 C 84 % 12.03 C
374 06-08-2018 07:05:00 14.7 C 84 % 12.03 C
375 06-08-2018 07:10:00 14.7 C 84 % 12.03 C
Sensor: Nr:Datum:Temp:Feuchte:Taupunkt:
Aussen-T/F 376 06-08-2018 07:15:00 14.7 C 84 % 12.03 C
377 06-08-2018 07:20:00 14.7 C 84 % 12.03 C
378 06-08-2018 07:25:00 14.7 C 84 % 12.03 C
379 06-08-2018 07:30:00 14.7 C 84 % 12.03 C
380 06-08-2018 07:35:00 14.8 C 84 % 12.12 C
381 06-08-2018 07:40:00 14.8 C 84 % 12.12 C
382 06-08-2018 07:45:00 14.8 C 84 % 12.12 C
383 06-08-2018 07:50:00 14.9 C 84 % 12.22 C
384 06-08-2018 07:55:00 14.9 C 84 % 12.22 C
385 06-08-2018 08:00:00 15 C 84 % 12.32 C
386 06-08-2018 08:05:00 15.1 C 84 % 12.42 C
387 06-08-2018 08:10:00 15.2 C 84 % 12.52 C
388 06-08-2018 08:15:00 15.3 C 84 % 12.61 C
389 06-08-2018 08:20:00 15.4 C 84 % 12.71 C
390 06-08-2018 08:25:00 15.5 C 83 % 12.63 C
391 06-08-2018 08:30:00 15.6 C 83 % 12.72 C
392 06-08-2018 08:35:00 15.7 C 83 % 12.82 C
393 06-08-2018 08:40:00 15.7 C 83 % 12.82 C
394 06-08-2018 08:45:00 15.8 C 82 % 12.74 C
395 06-08-2018 08:50:00 16 C 82 % 12.93 C
396 06-08-2018 08:55:00 16.2 C 83 % 13.31 C
397 06-08-2018 09:00:00 16.3 C 82 % 13.22 C
398 06-08-2018 09:05:00 16.5 C 82 % 13.42 C
399 06-08-2018 09:10:00 16.7 C 81 % 13.43 C
400 06-08-2018 09:15:00 16.9 C 81 % 13.62 C
Sensor: Nr:Datum:Temp:Feuchte:Taupunkt:
Aussen-T/F 401 06-08-2018 09:20:00 17.1 C 81 % 13.82 C
402 06-08-2018 09:25:00 17.3 C 80 % 13.82 C
403 06-08-2018 09:30:00 17.6 C 80 % 14.11 C
404 06-08-2018 09:35:00 17.8 C 79 % 14.11 C
405 06-08-2018 09:40:00 17.9 C 78 % 14.01 C
406 06-08-2018 09:45:00 18.2 C 78 % 14.3 C
407 06-08-2018 09:50:00 18.4 C 77 % 14.3 C
408 06-08-2018 09:55:00 18.8 C 76 % 14.48 C
409 06-08-2018 10:00:00 19.1 C 74 % 14.36 C
410 06-08-2018 10:05:00 19.6 C 72 % 14.42 C
411 06-08-2018 10:10:00 20.1 C 71 % 14.68 C
412 06-08-2018 10:15:00 20.6 C 70 % 14.94 C
413 06-08-2018 10:20:00 20.9 C 69 % 15 C
414 06-08-2018 10:25:00 21.3 C 67 % 14.93 C
415 06-08-2018 10:30:00 21.7 C 65 % 14.84 C
416 06-08-2018 10:35:00 22.2 C 66 % 15.55 C
417 06-08-2018 10:40:00 22.5 C 64 % 15.35 C
418 06-08-2018 10:45:00 22.8 C 61 % 14.89 C
419 06-08-2018 10:50:00 23.1 C 62 % 15.42 C
420 06-08-2018 10:55:00 23.4 C 60 % 15.19 C
421 06-08-2018 11:00:00 23.9 C 58 % 15.14 C
422 06-08-2018 11:05:00 24.3 C 57 % 15.24 C
423 06-08-2018 11:10:00 24.8 C 56 % 15.43 C
424 06-08-2018 11:15:00 25.2 C 54 % 15.23 C
425 06-08-2018 11:20:00 25.4 C 56 % 15.99 C
Sensor: Nr:Datum:Temp:Feuchte:Taupunkt:
Aussen-T/F 426 06-08-2018 11:25:00 25.7 C 53 % 15.4 C
427 06-08-2018 11:30:00 25.9 C 52 % 15.29 C
428 06-08-2018 11:35:00 26.3 C 51 % 15.36 C
429 06-08-2018 11:40:00 26.6 C 50 % 15.32 C
430 06-08-2018 11:45:00 26.8 C 50 % 15.51 C
431 06-08-2018 11:50:00 27.1 C 49 % 15.47 C
432 06-08-2018 11:55:00 27.3 C 48 % 15.33 C
433 06-08-2018 12:00:00 27.4 C 47 % 15.09 C
434 06-08-2018 12:05:00 27.6 C 46 % 14.94 C
435 06-08-2018 12:10:00 27.7 C 46 % 15.03 C
436 06-08-2018 12:15:00 27.8 C 47 % 15.45 C
437 06-08-2018 12:20:00 27.9 C 46 % 15.21 C
438 06-08-2018 12:25:00 28.1 C 46 % 15.39 C
439 06-08-2018 12:30:00 28.2 C 44 % 14.79 C
440 06-08-2018 12:35:00 28.2 C 44 % 14.79 C
441 06-08-2018 12:40:00 28.3 C 45 % 15.23 C
442 06-08-2018 12:45:00 28.3 C 43 % 14.53 C
443 06-08-2018 12:50:00 28.4 C 43 % 14.62 C
444 06-08-2018 12:55:00 28.8 C 42 % 14.61 C
445 06-08-2018 13:00:00 28.9 C 42 % 14.7 C
446 06-08-2018 13:05:00 29 C 40 % 14.03 C
447 06-08-2018 13:10:00 29 C 39 % 13.65 C
448 06-08-2018 13:15:00 29.1 C 40 % 14.12 C
449 06-08-2018 13:20:00 29.2 C 40 % 14.21 C
450 06-08-2018 13:25:00 29.3 C 39 % 13.91 C
Sensor: Nr:Datum:Temp:Feuchte:Taupunkt:
Aussen-T/F 451 06-08-2018 13:30:00 29.5 C 38 % 13.69 C
452 06-08-2018 13:35:00 29.6 C 38 % 13.78 C
453 06-08-2018 13:40:00 29.8 C 38 % 13.95 C
454 06-08-2018 13:45:00 30 C 38 % 14.13 C
455 06-08-2018 13:50:00 30.1 C 38 % 14.22 C
456 06-08-2018 13:55:00 30.3 C 37 % 13.99 C
457 06-08-2018 14:00:00 30.6 C 37 % 14.25 C
458 06-08-2018 14:05:00 30.7 C 36 % 13.92 C
459 06-08-2018 14:10:00 30.6 C 36 % 13.83 C
460 06-08-2018 14:15:00 30.6 C 37 % 14.25 C
461 06-08-2018 14:20:00 30.7 C 36 % 13.92 C
462 06-08-2018 14:25:00 30.8 C 37 % 14.43 C
463 06-08-2018 14:30:00 30.9 C 36 % 14.09 C
464 06-08-2018 14:35:00 31 C 37 % 14.6 C
465 06-08-2018 14:40:00 31 C 36 % 14.18 C
466 06-08-2018 14:45:00 31.1 C 37 % 14.69 C
467 06-08-2018 14:50:00 31.2 C 38 % 15.19 C
468 06-08-2018 14:55:00 31.3 C 36 % 14.44 C
469 06-08-2018 15:00:00 31.4 C 37 % 14.96 C
470 06-08-2018 15:05:00 31.6 C 37 % 15.13 C
471 06-08-2018 15:10:00 31.8 C 37 % 15.31 C
472 06-08-2018 15:15:00 32.1 C 36 % 15.15 C
473 06-08-2018 15:20:00 32.5 C 36 % 15.5 C
474 06-08-2018 15:25:00 32.8 C 35 % 15.32 C
475 06-08-2018 15:30:00 33 C 35 % 15.5 C
Sensor: Nr:Datum:Temp:Feuchte:Taupunkt:
Aussen-T/F 476 06-08-2018 15:35:00 33.2 C 35 % 15.67 C
477 06-08-2018 15:40:00 33.4 C 34 % 15.39 C
478 06-08-2018 15:45:00 33.6 C 34 % 15.57 C
479 06-08-2018 15:50:00 33.9 C 33 % 15.36 C
480 06-08-2018 15:55:00 34.3 C 33 % 15.71 C
481 06-08-2018 16:00:00 34.6 C 32 % 15.49 C
482 06-08-2018 16:05:00 34.3 C 34 % 16.18 C
483 06-08-2018 16:10:00 33.9 C 33 % 15.36 C
484 06-08-2018 16:15:00 33.6 C 34 % 15.57 C
485 06-08-2018 16:20:00 33.3 C 34 % 15.31 C
486 06-08-2018 16:25:00 33.4 C 34 % 15.39 C
487 06-08-2018 16:30:00 34.1 C 34 % 16 C
488 06-08-2018 16:35:00 34.4 C 33 % 15.8 C
489 06-08-2018 16:40:00 34.6 C 32 % 15.49 C
490 06-08-2018 16:45:00 34.7 C 32 % 15.58 C
491 06-08-2018 16:50:00 34.7 C 32 % 15.58 C
492 06-08-2018 16:55:00 34.4 C 33 % 15.8 C
493 06-08-2018 17:00:00 34 C 33 % 15.45 C
494 06-08-2018 17:05:00 33.8 C 36 % 16.64 C
495 06-08-2018 17:10:00 33.8 C 34 % 15.74 C
496 06-08-2018 17:15:00 34.2 C 34 % 16.09 C
497 06-08-2018 17:20:00 34.8 C 32 % 15.66 C
498 06-08-2018 17:25:00 34.5 C 32 % 15.4 C
499 06-08-2018 17:30:00 34.2 C 33 % 15.62 C
500 06-08-2018 17:35:00 34.3 C 32 % 15.23 C
Sensor: Nr:Datum:Temp:Feuchte:Taupunkt:
Aussen-T/F 501 06-08-2018 17:40:00 34.2 C 33 % 15.62 C
502 06-08-2018 17:45:00 34.4 C 33 % 15.8 C
503 06-08-2018 17:50:00 34.8 C 33 % 16.14 C
504 06-08-2018 17:55:00 35.1 C 31 % 15.43 C
505 06-08-2018 18:00:00 35.3 C 29 % 14.56 C
506 06-08-2018 18:05:00 35.4 C 29 % 14.65 C
507 06-08-2018 18:10:00 35.6 C 29 % 14.82 C
508 06-08-2018 18:15:00 35.8 C 28 % 14.44 C
509 06-08-2018 18:20:00 35.8 C 28 % 14.44 C
510 06-08-2018 18:25:00 35.8 C 28 % 14.44 C
511 06-08-2018 18:30:00 35.7 C 28 % 14.36 C
512 06-08-2018 18:35:00 35.3 C 28 % 14.02 C
513 06-08-2018 18:40:00 35.2 C 32 % 16.01 C
514 06-08-2018 18:45:00 35.4 C 29 % 14.65 C
515 06-08-2018 18:50:00 35.7 C 28 % 14.36 C
516 06-08-2018 18:55:00 35.9 C 28 % 14.53 C
517 06-08-2018 19:00:00 35.9 C 30 % 15.6 C
518 06-08-2018 19:05:00 35.9 C 28 % 14.53 C
519 06-08-2018 19:10:00 36.1 C 27 % 14.14 C
520 06-08-2018 19:15:00 35.9 C 27 % 13.97 C
521 06-08-2018 19:20:00 35.7 C 27 % 13.8 C
522 06-08-2018 19:25:00 35.4 C 31 % 15.68 C
523 06-08-2018 19:30:00 35.2 C 33 % 16.49 C
524 06-08-2018 19:35:00 34.9 C 35 % 17.16 C
525 06-08-2018 19:40:00 34.6 C 34 % 16.44 C
Sensor: Nr:Datum:Temp:Feuchte:Taupunkt:
Aussen-T/F 526 06-08-2018 19:45:00 34.3 C 36 % 17.08 C
527 06-08-2018 19:50:00 33.9 C 35 % 16.28 C
528 06-08-2018 19:55:00 33.6 C 36 % 16.46 C
529 06-08-2018 20:00:00 33.3 C 38 % 17.05 C
530 06-08-2018 20:05:00 33 C 38 % 16.78 C
531 06-08-2018 20:10:00 32.6 C 40 % 17.24 C
532 06-08-2018 20:15:00 32 C 39 % 16.31 C
533 06-08-2018 20:20:00 31.6 C 40 % 16.35 C
534 06-08-2018 20:25:00 31.2 C 41 % 16.38 C
535 06-08-2018 20:30:00 30.8 C 41 % 16.02 C
536 06-08-2018 20:35:00 30.4 C 41 % 15.67 C
537 06-08-2018 20:40:00 30.1 C 43 % 16.14 C
538 06-08-2018 20:45:00 29.8 C 43 % 15.87 C
539 06-08-2018 20:50:00 29.4 C 44 % 15.87 C
540 06-08-2018 20:55:00 29.1 C 44 % 15.6 C
541 06-08-2018 21:00:00 28.8 C 44 % 15.33 C
542 06-08-2018 21:05:00 28.5 C 45 % 15.41 C
543 06-08-2018 21:10:00 28.3 C 45 % 15.23 C
544 06-08-2018 21:15:00 28.2 C 45 % 15.14 C
545 06-08-2018 21:20:00 28 C 45 % 14.96 C
546 06-08-2018 21:25:00 27.9 C 46 % 15.21 C
547 06-08-2018 21:30:00 27.8 C 47 % 15.45 C
548 06-08-2018 21:35:00 27.6 C 50 % 16.24 C
549 06-08-2018 21:40:00 27.2 C 49 % 15.56 C
550 06-08-2018 21:45:00 26.9 C 51 % 15.91 C
Sensor: Nr:Datum:Temp:Feuchte:Taupunkt:
Aussen-T/F 551 06-08-2018 21:50:00 26.6 C 50 % 15.32 C
552 06-08-2018 21:55:00 26.3 C 52 % 15.66 C
553 06-08-2018 22:00:00 26.2 C 53 % 15.87 C
554 06-08-2018 22:05:00 25.8 C 53 % 15.5 C
555 06-08-2018 22:10:00 25.6 C 54 % 15.6 C
556 06-08-2018 22:15:00 25.4 C 56 % 15.99 C
557 06-08-2018 22:20:00 25.2 C 56 % 15.8 C
558 06-08-2018 22:25:00 25 C 54 % 15.05 C
559 06-08-2018 22:30:00 24.9 C 57 % 15.8 C
560 06-08-2018 22:35:00 24.8 C 57 % 15.7 C
561 06-08-2018 22:40:00 24.7 C 58 % 15.88 C
562 06-08-2018 22:45:00 24.6 C 59 % 16.06 C
563 06-08-2018 22:50:00 24.4 C 58 % 15.6 C
564 06-08-2018 22:55:00 24.3 C 58 % 15.51 C
565 06-08-2018 23:00:00 24.3 C 59 % 15.78 C
566 06-08-2018 23:05:00 24.3 C 59 % 15.78 C
567 06-08-2018 23:10:00 24.2 C 59 % 15.68 C
568 06-08-2018 23:15:00 24 C 60 % 15.76 C
569 06-08-2018 23:20:00 23.8 C 61 % 15.83 C
570 06-08-2018 23:25:00 23.5 C 61 % 15.55 C
571 06-08-2018 23:30:00 23.3 C 61 % 15.36 C
572 06-08-2018 23:35:00 23.2 C 61 % 15.26 C
573 06-08-2018 23:40:00 23.1 C 63 % 15.67 C
574 06-08-2018 23:45:00 22.9 C 62 % 15.23 C
575 06-08-2018 23:50:00 22.8 C 63 % 15.39 C
Sensor: Nr:Datum:Temp:Feuchte:Taupunkt:
Aussen-T/F 576 06-08-2018 23:55:00 22.6 C 64 % 15.45 C
577 07-08-2018 00:00:00 22.4 C 64 % 15.26 C
578 07-08-2018 00:05:00 22.2 C 65 % 15.31 C
579 07-08-2018 00:10:00 22 C 65 % 15.12 C
580 07-08-2018 00:15:00 21.8 C 64 % 14.69 C
581 07-08-2018 00:20:00 21.7 C 65 % 14.84 C
582 07-08-2018 00:25:00 21.6 C 64 % 14.5 C
583 07-08-2018 00:30:00 21.6 C 64 % 14.5 C
584 07-08-2018 00:35:00 21.5 C 65 % 14.65 C
585 07-08-2018 00:40:00 21.5 C 64 % 14.41 C
586 07-08-2018 00:45:00 21.5 C 65 % 14.65 C
587 07-08-2018 00:50:00 21.5 C 65 % 14.65 C
588 07-08-2018 00:55:00 21.5 C 64 % 14.41 C
589 07-08-2018 01:00:00 21.5 C 65 % 14.65 C
590 07-08-2018 01:05:00 21.4 C 65 % 14.55 C
591 07-08-2018 01:10:00 21.4 C 65 % 14.55 C
592 07-08-2018 01:15:00 21.2 C 65 % 14.36 C
593 07-08-2018 01:20:00 21 C 66 % 14.41 C
594 07-08-2018 01:25:00 20.9 C 66 % 14.31 C
595 07-08-2018 01:30:00 20.7 C 67 % 14.36 C
596 07-08-2018 01:35:00 20.6 C 68 % 14.49 C
597 07-08-2018 01:40:00 20.3 C 67 % 13.97 C
598 07-08-2018 01:45:00 20.2 C 68 % 14.11 C
599 07-08-2018 01:50:00 20 C 69 % 14.14 C
600 07-08-2018 01:55:00 19.8 C 70 % 14.17 C
Sensor: Nr:Datum:Temp:Feuchte:Taupunkt:
Aussen-T/F 601 07-08-2018 02:00:00 19.7 C 70 % 14.08 C
602 07-08-2018 02:05:00 19.4 C 71 % 14.01 C
603 07-08-2018 02:10:00 19.3 C 71 % 13.91 C
604 07-08-2018 02:15:00 19.1 C 72 % 13.94 C
605 07-08-2018 02:20:00 19.1 C 72 % 13.94 C
606 07-08-2018 02:25:00 19 C 72 % 13.84 C
607 07-08-2018 02:30:00 19.1 C 72 % 13.94 C
608 07-08-2018 02:35:00 19.3 C 73 % 14.34 C
609 07-08-2018 02:40:00 19.5 C 74 % 14.74 C
610 07-08-2018 02:45:00 19.5 C 73 % 14.53 C
611 07-08-2018 02:50:00 19.4 C 72 % 14.22 C
612 07-08-2018 02:55:00 19.3 C 72 % 14.13 C
613 07-08-2018 03:00:00 19.1 C 73 % 14.15 C
614 07-08-2018 03:05:00 18.9 C 73 % 13.96 C
615 07-08-2018 03:10:00 18.8 C 73 % 13.86 C
616 07-08-2018 03:15:00 18.7 C 73 % 13.76 C
617 07-08-2018 03:20:00 18.6 C 74 % 13.88 C
618 07-08-2018 03:25:00 18.6 C 74 % 13.88 C
619 07-08-2018 03:30:00 18.6 C 74 % 13.88 C
620 07-08-2018 03:35:00 18.5 C 74 % 13.78 C
621 07-08-2018 03:40:00 18.3 C 74 % 13.59 C
622 07-08-2018 03:45:00 18.2 C 75 % 13.7 C
623 07-08-2018 03:50:00 18.1 C 75 % 13.6 C
624 07-08-2018 03:55:00 18.1 C 75 % 13.6 C
625 07-08-2018 04:00:00 17.9 C 76 % 13.61 C
Sensor: Nr:Datum:Temp:Feuchte:Taupunkt:
Aussen-T/F 626 07-08-2018 04:05:00 17.8 C 76 % 13.52 C
627 07-08-2018 04:10:00 17.8 C 76 % 13.52 C
628 07-08-2018 04:15:00 17.7 C 77 % 13.62 C
629 07-08-2018 04:20:00 17.6 C 77 % 13.52 C
630 07-08-2018 04:25:00 17.5 C 78 % 13.62 C
631 07-08-2018 04:30:00 17.4 C 78 % 13.53 C
632 07-08-2018 04:35:00 17.4 C 78 % 13.53 C
633 07-08-2018 04:40:00 17.3 C 78 % 13.43 C
634 07-08-2018 04:45:00 17.2 C 78 % 13.33 C
635 07-08-2018 04:50:00 17.2 C 79 % 13.53 C
636 07-08-2018 04:55:00 17.2 C 79 % 13.53 C
637 07-08-2018 05:00:00 17.2 C 80 % 13.72 C
638 07-08-2018 05:05:00 17.2 C 80 % 13.72 C
639 07-08-2018 05:10:00 17.2 C 80 % 13.72 C
640 07-08-2018 05:15:00 17.2 C 80 % 13.72 C
641 07-08-2018 05:20:00 17.2 C 79 % 13.53 C
642 07-08-2018 05:25:00 17.1 C 79 % 13.43 C
643 07-08-2018 05:30:00 16.9 C 79 % 13.24 C
644 07-08-2018 05:35:00 16.9 C 80 % 13.43 C
645 07-08-2018 05:40:00 16.8 C 80 % 13.33 C
646 07-08-2018 05:45:00 16.7 C 80 % 13.23 C
647 07-08-2018 05:50:00 16.7 C 81 % 13.43 C
648 07-08-2018 05:55:00 16.6 C 81 % 13.33 C
649 07-08-2018 06:00:00 16.5 C 81 % 13.23 C
650 07-08-2018 06:05:00 16.6 C 82 % 13.52 C
Sensor: Nr:Datum:Temp:Feuchte:Taupunkt:
Aussen-T/F 651 07-08-2018 06:10:00 16.6 C 82 % 13.52 C
652 07-08-2018 06:15:00 16.6 C 82 % 13.52 C
653 07-08-2018 06:20:00 16.6 C 82 % 13.52 C
654 07-08-2018 06:25:00 16.5 C 82 % 13.42 C
655 07-08-2018 06:30:00 16.6 C 82 % 13.52 C
656 07-08-2018 06:35:00 16.6 C 83 % 13.7 C
657 07-08-2018 06:40:00 16.7 C 83 % 13.8 C
658 07-08-2018 06:45:00 16.7 C 82 % 13.61 C
659 07-08-2018 06:50:00 16.8 C 82 % 13.71 C
660 07-08-2018 06:55:00 16.8 C 82 % 13.71 C
661 07-08-2018 07:00:00 16.9 C 82 % 13.81 C
662 07-08-2018 07:05:00 16.9 C 82 % 13.81 C
663 07-08-2018 07:10:00 16.9 C 83 % 14 C
664 07-08-2018 07:15:00 17 C 83 % 14.09 C
665 07-08-2018 07:20:00 17 C 83 % 14.09 C
666 07-08-2018 07:25:00 17 C 83 % 14.09 C
667 07-08-2018 07:30:00 17.1 C 83 % 14.19 C
668 07-08-2018 07:35:00 17.1 C 83 % 14.19 C
669 07-08-2018 07:40:00 17.2 C 83 % 14.29 C
670 07-08-2018 07:45:00 17.3 C 83 % 14.39 C
671 07-08-2018 07:50:00 17.3 C 83 % 14.39 C
672 07-08-2018 07:55:00 17.4 C 84 % 14.67 C
673 07-08-2018 08:00:00 17.5 C 83 % 14.58 C
674 07-08-2018 08:05:00 17.6 C 83 % 14.68 C
675 07-08-2018 08:10:00 17.7 C 83 % 14.78 C
Sensor: Nr:Datum:Temp:Feuchte:Taupunkt:
Aussen-T/F 676 07-08-2018 08:15:00 17.8 C 83 % 14.88 C
677 07-08-2018 08:20:00 17.9 C 83 % 14.97 C
678 07-08-2018 08:25:00 18.1 C 83 % 15.17 C
679 07-08-2018 08:30:00 18.2 C 82 % 15.08 C
680 07-08-2018 08:35:00 18.3 C 82 % 15.17 C
681 07-08-2018 08:40:00 18.3 C 82 % 15.17 C
682 07-08-2018 08:45:00 18.6 C 82 % 15.47 C
683 07-08-2018 08:50:00 18.7 C 83 % 15.75 C
684 07-08-2018 08:55:00 18.8 C 82 % 15.66 C
685 07-08-2018 09:00:00 19 C 81 % 15.67 C
686 07-08-2018 09:05:00 19.2 C 79 % 15.47 C
687 07-08-2018 09:10:00 19.5 C 80 % 15.96 C
688 07-08-2018 09:15:00 19.8 C 81 % 16.45 C
689 07-08-2018 09:20:00 20.1 C 80 % 16.54 C
690 07-08-2018 09:25:00 20.2 C 80 % 16.64 C
691 07-08-2018 09:30:00 20.4 C 76 % 16.03 C
692 07-08-2018 09:35:00 20.7 C 77 % 16.52 C
693 07-08-2018 09:40:00 21.1 C 74 % 16.29 C
694 07-08-2018 09:45:00 21.6 C 72 % 16.34 C
695 07-08-2018 09:50:00 22 C 71 % 16.5 C
696 07-08-2018 09:55:00 22.3 C 70 % 16.56 C
697 07-08-2018 10:00:00 22.6 C 68 % 16.39 C
698 07-08-2018 10:05:00 22.8 C 69 % 16.82 C
699 07-08-2018 10:10:00 23.1 C 68 % 16.87 C
700 07-08-2018 10:15:00 23.2 C 69 % 17.2 C
Sensor: Nr:Datum:Temp:Feuchte:Taupunkt:
Aussen-T/F 701 07-08-2018 10:20:00 23.2 C 69 % 17.2 C
702 07-08-2018 10:25:00 23.2 C 69 % 17.2 C
703 07-08-2018 10:30:00 23.3 C 69 % 17.29 C
704 07-08-2018 10:35:00 23.5 C 69 % 17.48 C
705 07-08-2018 10:40:00 23.7 C 68 % 17.44 C
706 07-08-2018 10:45:00 23.9 C 69 % 17.87 C
707 07-08-2018 10:50:00 24.2 C 67 % 17.68 C
708 07-08-2018 10:55:00 24.4 C 67 % 17.87 C
709 07-08-2018 11:00:00 24.7 C 67 % 18.16 C
710 07-08-2018 11:05:00 24.9 C 68 % 18.59 C
711 07-08-2018 11:10:00 25.1 C 66 % 18.3 C
712 07-08-2018 11:15:00 25.3 C 66 % 18.49 C
713 07-08-2018 11:20:00 25.6 C 65 % 18.53 C
714 07-08-2018 11:25:00 25.9 C 63 % 18.31 C
715 07-08-2018 11:30:00 26.3 C 62 % 18.44 C
716 07-08-2018 11:35:00 26.8 C 60 % 18.38 C
717 07-08-2018 11:40:00 27.3 C 58 % 18.31 C
718 07-08-2018 11:45:00 27.8 C 56 % 18.22 C
719 07-08-2018 11:50:00 28.2 C 56 % 18.59 C
720 07-08-2018 11:55:00 28.6 C 55 % 18.67 C
721 07-08-2018 12:00:00 28.9 C 52 % 18.05 C
722 07-08-2018 12:05:00 29.2 C 50 % 17.71 C
723 07-08-2018 12:10:00 29.7 C 50 % 18.16 C
724 07-08-2018 12:15:00 30.2 C 47 % 17.64 C
725 07-08-2018 12:20:00 30.7 C 46 % 17.75 C
Sensor: Nr:Datum:Temp:Feuchte:Taupunkt:
Aussen-T/F 726 07-08-2018 12:25:00 31.1 C 45 % 17.76 C
727 07-08-2018 12:30:00 31.4 C 43 % 17.31 C
728 07-08-2018 12:35:00 31.7 C 41 % 16.83 C
729 07-08-2018 12:40:00 31.8 C 40 % 16.53 C
730 07-08-2018 12:45:00 31.9 C 40 % 16.62 C
731 07-08-2018 12:50:00 32.1 C 39 % 16.4 C
732 07-08-2018 12:55:00 32.2 C 39 % 16.48 C
733 07-08-2018 13:00:00 32.2 C 40 % 16.88 C
734 07-08-2018 13:05:00 32.3 C 37 % 15.75 C
735 07-08-2018 13:10:00 32.6 C 37 % 16.01 C
736 07-08-2018 13:15:00 32.7 C 37 % 16.1 C
737 07-08-2018 13:20:00 32.9 C 36 % 15.85 C
738 07-08-2018 13:25:00 33 C 37 % 16.36 C
739 07-08-2018 13:30:00 33.1 C 41 % 18.08 C
740 07-08-2018 13:35:00 32.9 C 39 % 17.11 C
741 07-08-2018 13:40:00 32.8 C 39 % 17.02 C
742 07-08-2018 13:45:00 32.8 C 37 % 16.19 C
743 07-08-2018 13:50:00 33.2 C 35 % 15.67 C
744 07-08-2018 13:55:00 33.7 C 34 % 15.65 C
745 07-08-2018 14:00:00 34.1 C 33 % 15.54 C
746 07-08-2018 14:05:00 34.3 C 33 % 15.71 C
747 07-08-2018 14:10:00 34.3 C 33 % 15.71 C
748 07-08-2018 14:15:00 34.3 C 32 % 15.23 C
749 07-08-2018 14:20:00 34.6 C 32 % 15.49 C
750 07-08-2018 14:25:00 34.8 C 31 % 15.17 C
Sensor: Nr:Datum:Temp:Feuchte:Taupunkt:
Aussen-T/F 751 07-08-2018 14:30:00 34.9 C 31 % 15.25 C
752 07-08-2018 14:35:00 34.9 C 31 % 15.25 C
753 07-08-2018 14:40:00 34.8 C 30 % 14.66 C
754 07-08-2018 14:45:00 34.8 C 31 % 15.17 C
755 07-08-2018 14:50:00 34.9 C 31 % 15.25 C
756 07-08-2018 14:55:00 35 C 30 % 14.83 C
757 07-08-2018 15:00:00 35.2 C 30 % 15 C
758 07-08-2018 15:05:00 35.2 C 30 % 15 C
759 07-08-2018 15:10:00 35.2 C 30 % 15 C
760 07-08-2018 15:15:00 35.3 C 30 % 15.09 C
761 07-08-2018 15:20:00 35.5 C 29 % 14.73 C
762 07-08-2018 15:25:00 35.8 C 29 % 14.99 C
763 07-08-2018 15:30:00 35.8 C 30 % 15.52 C
764 07-08-2018 15:35:00 35.9 C 28 % 14.53 C
765 07-08-2018 15:40:00 36.1 C 29 % 15.24 C
766 07-08-2018 15:45:00 36.3 C 29 % 15.41 C
767 07-08-2018 15:50:00 36.6 C 29 % 15.67 C
768 07-08-2018 15:55:00 36.9 C 28 % 15.38 C
769 07-08-2018 16:00:00 37.2 C 27 % 15.07 C
770 07-08-2018 16:05:00 37.1 C 27 % 14.98 C
771 07-08-2018 16:10:00 37.2 C 27 % 15.07 C
772 07-08-2018 16:15:00 37.3 C 26 % 14.57 C
773 07-08-2018 16:20:00 37.4 C 26 % 14.65 C
774 07-08-2018 16:25:00 37.1 C 27 % 14.98 C
775 07-08-2018 16:30:00 37 C 27 % 14.9 C
Sensor: Nr:Datum:Temp:Feuchte:Taupunkt:
Aussen-T/F 776 07-08-2018 16:35:00 37.2 C 28 % 15.63 C
777 07-08-2018 16:40:00 37.7 C 27 % 15.49 C
778 07-08-2018 16:45:00 38 C 27 % 15.74 C
779 07-08-2018 16:50:00 38.1 C 28 % 16.4 C
780 07-08-2018 16:55:00 37.8 C 27 % 15.57 C
781 07-08-2018 17:00:00 37.6 C 26 % 14.82 C
782 07-08-2018 17:05:00 37.6 C 26 % 14.82 C
783 07-08-2018 17:10:00 37.9 C 26 % 15.07 C
784 07-08-2018 17:15:00 38.1 C 25 % 14.63 C
785 07-08-2018 17:20:00 37.9 C 26 % 15.07 C
786 07-08-2018 17:25:00 37.7 C 27 % 15.49 C
787 07-08-2018 17:30:00 37.4 C 28 % 15.8 C
788 07-08-2018 17:35:00 37.5 C 27 % 15.32 C
789 07-08-2018 17:40:00 37.8 C 26 % 14.99 C
790 07-08-2018 17:45:00 37.9 C 26 % 15.07 C
791 07-08-2018 17:50:00 37.8 C 26 % 14.99 C
792 07-08-2018 17:55:00 38.2 C 25 % 14.71 C
793 07-08-2018 18:00:00 38.3 C 25 % 14.8 C
794 07-08-2018 18:05:00 38.3 C 23 % 13.51 C
795 07-08-2018 18:10:00 38.4 C 24 % 14.25 C
796 07-08-2018 18:15:00 38.4 C 23 % 13.59 C
797 07-08-2018 18:20:00 38.4 C 23 % 13.59 C
798 07-08-2018 18:25:00 38.4 C 24 % 14.25 C
799 07-08-2018 18:30:00 38.4 C 23 % 13.59 C
800 07-08-2018 18:35:00 38.3 C 23 % 13.51 C
Sensor: Nr:Datum:Temp:Feuchte:Taupunkt:
Aussen-T/F 801 07-08-2018 18:40:00 38.3 C 23 % 13.51 C
802 07-08-2018 18:45:00 38.2 C 23 % 13.43 C
803 07-08-2018 18:50:00 38 C 24 % 13.92 C
804 07-08-2018 18:55:00 37.8 C 23 % 13.1 C
805 07-08-2018 19:00:00 37.7 C 25 % 14.29 C
806 07-08-2018 19:05:00 37.6 C 23 % 12.93 C
807 07-08-2018 19:10:00 37.6 C 24 % 13.58 C
808 07-08-2018 19:15:00 37.6 C 24 % 13.58 C
809 07-08-2018 19:20:00 37.5 C 24 % 13.5 C
810 07-08-2018 19:25:00 37.2 C 24 % 13.25 C
811 07-08-2018 19:30:00 36.9 C 28 % 15.38 C
812 07-08-2018 19:35:00 36.7 C 27 % 14.64 C
813 07-08-2018 19:40:00 36.4 C 29 % 15.5 C
814 07-08-2018 19:45:00 36.1 C 26 % 13.56 C
815 07-08-2018 19:50:00 35.7 C 31 % 15.94 C
816 07-08-2018 19:55:00 35.4 C 32 % 16.18 C
817 07-08-2018 20:00:00 35 C 33 % 16.32 C
818 07-08-2018 20:05:00 34.5 C 35 % 16.81 C
819 07-08-2018 20:10:00 34 C 37 % 17.25 C
820 07-08-2018 20:15:00 33.6 C 39 % 17.73 C
821 07-08-2018 20:20:00 33.3 C 40 % 17.86 C
822 07-08-2018 20:25:00 33.2 C 40 % 17.77 C
823 07-08-2018 20:30:00 33 C 41 % 17.99 C
824 07-08-2018 20:35:00 32.9 C 41 % 17.9 C
825 07-08-2018 20:40:00 32.8 C 42 % 18.19 C
Sensor: Nr:Datum:Temp:Feuchte:Taupunkt:
Aussen-T/F 826 07-08-2018 20:45:00 32.7 C 43 % 18.48 C
827 07-08-2018 20:50:00 32.4 C 43 % 18.21 C
828 07-08-2018 20:55:00 32.2 C 44 % 18.39 C
829 07-08-2018 21:00:00 32.1 C 45 % 18.66 C
830 07-08-2018 21:05:00 31.8 C 45 % 18.39 C
831 07-08-2018 21:10:00 31.6 C 46 % 18.56 C
832 07-08-2018 21:15:00 31.3 C 48 % 18.97 C
833 07-08-2018 21:20:00 31 C 48 % 18.7 C
834 07-08-2018 21:25:00 30.6 C 48 % 18.33 C
835 07-08-2018 21:30:00 30.3 C 48 % 18.06 C
836 07-08-2018 21:35:00 30.1 C 49 % 18.21 C
837 07-08-2018 21:40:00 29.8 C 50 % 18.25 C
838 07-08-2018 21:45:00 29.6 C 49 % 17.75 C
839 07-08-2018 21:50:00 29.3 C 50 % 17.8 C
840 07-08-2018 21:55:00 29.2 C 52 % 18.33 C
841 07-08-2018 22:00:00 28.9 C 52 % 18.05 C
842 07-08-2018 22:05:00 28.8 C 53 % 18.26 C
843 07-08-2018 22:10:00 28.6 C 53 % 18.08 C
844 07-08-2018 22:15:00 28.5 C 54 % 18.29 C
845 07-08-2018 22:20:00 28.4 C 55 % 18.49 C
846 07-08-2018 22:25:00 28.3 C 54 % 18.1 C
847 07-08-2018 22:30:00 28.3 C 54 % 18.1 C
848 07-08-2018 22:35:00 28.3 C 54 % 18.1 C
849 07-08-2018 22:40:00 28.3 C 54 % 18.1 C
850 07-08-2018 22:45:00 28.2 C 55 % 18.3 C
Sensor: Nr:Datum:Temp:Feuchte:Taupunkt:
Aussen-T/F 851 07-08-2018 22:50:00 28.2 C 54 % 18.01 C
852 07-08-2018 22:55:00 28.2 C 54 % 18.01 C
853 07-08-2018 23:00:00 28.1 C 55 % 18.21 C
854 07-08-2018 23:05:00 28.1 C 55 % 18.21 C
855 07-08-2018 23:10:00 28.1 C 55 % 18.21 C
856 07-08-2018 23:15:00 28.1 C 55 % 18.21 C
857 07-08-2018 23:20:00 28.1 C 55 % 18.21 C
858 07-08-2018 23:25:00 28 C 56 % 18.4 C
859 07-08-2018 23:30:00 27.9 C 55 % 18.02 C
860 07-08-2018 23:35:00 27.8 C 56 % 18.22 C
861 07-08-2018 23:40:00 27.7 C 56 % 18.12 C
862 07-08-2018 23:45:00 27.7 C 57 % 18.41 C
863 07-08-2018 23:50:00 27.6 C 57 % 18.31 C
864 07-08-2018 23:55:00 27.5 C 57 % 18.22 C

Legende:
   Min
   Max


Maximal/Minimal-Werte vom 05.08.2018 - 07.08.2018

Sensor Min Max Avg
Temp
(Aussen-T/F)
14.7 °C
06-08-2018  06:45:00
38.4 °C
07-08-2018  18:10:00
25.2 °C
Feuchte
(Aussen-T/F)
23 %
07-08-2018  18:05:00
84 %
05-08-2018  06:05:00
57.6 %
Taupunkt
(Aussen-T/F)
11.85 C
06-08-2018  06:45:00
18.97 C
07-08-2018  21:15:00
15.11 C

Die Daten stammen von einer Davis Vantage Pro 2 Wetter-Station und werden unter Linux mit der Software wview2wettercgi und aufbereitet. Alle Angaben erfolgen ohne Gewähr für ihre Vollständigkeit oder Richtigkeit.
Kontakt: Rainer Krienke krienke@uni-koblenz.de . Meine Webseiten an der Uni Koblenz oder privat.
Version: $Revision: 0.78 $